RH
100 100 100 100 100 99 100 100 100 100 99 97 94 91 89 88 88 89 91 93 95 96 97 99 99 100 100 100 100 100 100 100 100 100 100 100 100 100 100 100 99 100
100 100 100 100 100 100 100 100 100 100 98 95 93 91 90 90 90 92 94 94 95 96 96 97 98 98 100 100 100 100 100 100 100 100 100 100 100 100 100 100 100 100
100 100 100 100 100 100 100 100 100 99 97 96 94 94 93 93 94 95 95 95 95 96 96 97 97 97 99 99 100 100 100 100 100 100 100 100 100 100 100 100 100 100
100 100 100 100 100 100 100 99 98 98 97 96 95 95 95 95 96 95 95 94 94 94 94 95 95 95 97 98 99 100 100 100 100 100 100 100 100 100 100 100 100 100
100 100 100 100 100 100 100 99 97 97 97 96 95 95 95 95 94 93 92 92 91 91 92 92 93 94 94 95 96 97 99 99 100 100 100 100 100 100 100 100 100 100
100 100 100 100 99 98 98 96 95 95 94 94 93 93 92 91 91 90 90 89 89 90 90 91 91 92 93 94 95 95 96 97 98 99 100 100 100 100 100 100 100 100
96 96 93 92 93 93 91 90 89 88 86 86 85 83 82 81 81 80 80 80 81 81 83 85 86 88 88 90 92 92 93 95 95 96 98 98 99 100 100 100 100 100
82 81 78 78 80 80 78 76 73 71 68 66 66 64 62 61 58 57 58 59 59 60 62 66 70 73 76 79 82 83 86 88 90 92 94 94 96 97 97 98 99 100
63 61 59 60 61 60 57 54 50 48 45 44 45 43 41 40 38 37 38 38 38 38 38 41 44 47 51 56 60 63 67 70 72 76 80 83 87 89 91 93 94 95
51 49 47 47 46 44 40 38 36 34 33 33 34 33 32 33 33 32 33 32 31 31 31 32 31 31 32 33 36 39 42 45 48 51 55 59 63 68 73 77 81 85
54 51 48 45 43 41 38 37 36 34 34 33 33 32 32 32 31 31 32 31 32 32 31 32 30 29 29 27 27 27 27 28 30 32 34 36 37 40 44 48 54 60
59 56 54 51 48 45 41 39 37 35 34 32 32 31 30 30 30 30 30 30 30 30 29 29 29 28 28 27 27 26 24 24 23 23 24 25 26 27 27 29 31 33
62 60 58 55 51 47 44 40 37 36 34 32 32 31 30 30 30 30 30 30 29 29 28 28 27 27 27 26 27 26 25 24 23 22 22 20 21 21 21 22 22 22
67 64 61 59 55 50 46 42 40 37 35 34 32 31 31 31 30 30 28 28 28 28 27 26 26 26 26 25 26 26 26 26 25 25 23 22 22 20 19 18 17 17
74 70 67 64 60 55 51 48 46 42 40 38 34 32 32 30 30 29 27 26 26 25 25 25 24 24 23 23 24 24 25 25 24 25 24 24 23 22 21 19 17 16
78 74 70 67 63 60 57 54 51 47 45 42 39 37 35 32 31 29 28 26 24 24 24 23 22 21 20 20 20 20 21 21 21 22 22 22 22 22 21 20 19 18
79 76 72 68 65 63 60 57 52 47 43 40 38 37 36 35 34 32 31 29 27 26 25 23 22 21 20 20 19 19 19 18 18 19 19 19 19 19 19 19 18 18
80 78 76 73 71 68 63 58 51 44 40 35 33 33 32 32 32 31 31 30 29 29 27 26 26 23 23 23 20 25 33 30 22 19 18 18 18 17 17 17 16 16
83 82 80 78 76 72 65 58 51 45 40 35 33 31 30 30 29 29 29 27 27 28 26 27 27 25 27 26 21 34 53 54 39 27 21 20 20 18 18 17 17 17
85 84 82 81 78 74 69 62 54 48 42 36 34 31 30 30 29 28 28 27 27 27 25 27 26 25 29 26 26 44 62 63 55 41 29 26 25 23 23 22 20 20
86 85 83 81 79 75 70 63 55 48 41 36 34 32 31 31 30 29 29 28 28 27 27 27 26 28 29 25 36 61 70 64 61 53 39 34 31 28 29 27 25 25
86 85 83 80 77 72 66 60 54 47 41 37 34 33 33 32 31 31 30 30 30 29 29 30 27 30 32 28 41 71 79 68 64 61 53 47 41 35 33 32 30 29
88 85 82 79 75 71 67 61 53 45 40 37 35 35 34 33 33 33 33 33 34 32 32 33 31 32 35 32 42 69 80 69 61 59 58 56 51 46 44 41 39 38
89 87 84 82 80 76 68 57 49 43 40 39 39 38 38 38 37 38 39 38 39 38 37 38 37 37 38 36 41 57 71 73 68 61 57 56 54 54 55 50 47 46
93 91 87 82 75 66 58 50 47 46 45 45 46 46 46 47 46 45 46 46 46 47 46 45 45 44 44 44 43 46 60 77 79 67 57 55 52 53 55 53 52 51
87 82 74 67 61 55 53 52 52 53 54 53 54 53 53 54 53 52 52 53 52 53 53 53 52 51 50 51 49 47 55 68 69 60 57 56 52 51 52 52 52 52
Wind_Speed
9 8 7 6 5 5 4 4 4 4 4 4 4 4 6 6 7 7 7 7 7 7 6 7 7 7 7 7 6 6 6 6 5 4 4 4 4 4 5 5 6 8
8 8 8 8 8 8 7 7 6 6 5 5 5 6 7 6 6 7 7 8 7 7 7 7 7 7 7 7 6 6 5 5 4 4 3 3 3 3 3 3 4 5
10 10 10 9 9 9 8 7 6 6 6 6 6 6 6 5 6 6 7 7 7 7 7 7 7 7 7 7 7 6 5 4 4 3 3 2 2 2 2 2 3 4
11 10 10 10 9 8 8 7 6 6 6 5 5 5 5 5 5 5 6 7 7 7 7 7 7 7 7 8 7 7 7 6 5 4 4 3 2 2 1 1 1 2
12 11 11 10 9 9 8 7 7 7 6 6 6 6 6 6 5 5 6 6 7 7 8 8 7 7 7 7 7 7 7 7 6 6 6 5 4 3 3 3 2 2
14 13 12 11 11 10 9 8 9 9 8 8 7 7 7 7 6 6 6 7 7 8 8 8 8 8 7 7 7 6 7 7 7 7 7 7 7 6 5 5 4 4
15 15 14 13 12 11 10 11 10 9 9 9 8 8 8 8 7 7 7 8 8 8 8 8 8 8 8 8 8 7 7 7 7 7 8 8 8 7 7 7 6 6
16 15 15 14 13 12 12 12 11 11 10 9 8 8 8 8 8 8 8 8 8 8 8 8 8 8 8 9 8 8 8 8 7 7 7 7 7 7 7 7 7 7
16 15 14 13 13 13 13 13 12 11 10 9 9 9 8 8 8 9 9 9 8 8 8 8 8 8 8 8 9 9 9 9 9 9 8 8 8 7 7 7 7 7
15 15 13 13 13 14 14 13 12 11 10 9 9 9 8 8 8 8 8 8 8 8 8 8 8 8 9 9 8 9 9 10 10 10 10 10 10 10 9 9 9 8
14 14 13 13 14 13 13 12 11 11 10 9 9 9 8 8 8 8 8 8 8 8 9 9 9 9 9 9 9 9 9 9 10 10 11 11 11 12 11 11 11 11
11 12 13 13 13 13 13 12 11 11 10 9 9 8 8 8 8 8 8 8 9 9 9 10 10 10 10 11 10 10 10 10 10 10 10 11 11 12 13 13 13 13
10 12 13 14 14 13 13 13 12 12 11 10 10 9 8 8 9 9 9 10 10 10 11 11 12 12 13 13 13 13 12 12 12 11 11 11 11 12 13 14 15 15
10 12 13 14 15 15 14 14 14 13 12 12 12 11 10 10 10 11 11 11 12 12 12 13 13 13 14 15 15 16 15 15 15 14 13 12 12 12 13 14 15 16
10 11 13 14 15 15 14 14 14 14 14 14 14 14 13 13 12 12 12 13 13 13 13 14 14 15 15 16 17 18 18 18 19 18 16 16 15 15 15 15 15 16
11 12 13 14 15 15 16 16 17 17 17 17 17 17 16 15 15 14 14 14 14 14 14 14 14 15 15 16 16 18 19 20 20 20 19 19 19 19 18 18 17 17
13 14 15 15 16 18 19 20 20 20 21 21 20 19 19 18 18 17 16 16 16 15 15 14 14 15 15 15 15 16 19 21 21 21 20 20 21 22 21 21 20 19
15 16 17 18 19 21 22 23 23 23 23 23 22 22 21 20 20 20 19 19 18 18 17 16 15 15 15 15 14 13 17 22 22 21 20 20 21 22 22 23 23 22
16 18 19 20 21 22 24 24 25 25 25 24 24 24 23 22 22 21 22 21 20 20 20 18 18 17 16 16 13 10 14 22 23 22 22 21 22 23 23 23 23 23
17 18 19 21 22 24 25 26 26 27 27 27 26 25 24 23 23 22 23 23 22 21 21 20 19 17 16 16 13 10 15 23 24 24 23 22 23 24 24 24 24 25
18 19 20 22 23 25 26 27 27 28 28 27 27 26 25 24 24 24 23 23 23 22 21 21 20 17 15 14 10 10 17 23 24 24 23 22 23 24 23 24 24 25
19 20 22 23 25 26 27 27 28 28 28 27 26 25 25 24 24 24 23 23 23 23 22 22 21 18 15 13 8 10 19 23 22 23 23 22 23 23 23 24 24 25
21 22 24 25 26 27 28 29 29 29 28 27 26 25 25 24 24 23 24 24 23 24 23 22 22 20 17 13 9 10 18 23 23 23 23 23 23 23 24 24 24 24
23 24 25 27 27 28 29 29 29 28 27 26 25 24 23 23 23 22 22 23 22 23 23 22 22 21 18 16 13 12 17 22 25 25 24 23 24 23 24 24 23 23
24 25 27 28 29 29 29 29 28 27 26 25 25 24 23 22 22 20 20 20 21 21 21 21 21 20 19 18 16 15 15 20 25 27 26 25 25 24 24 24 24 24
25 26 27 28 28 28 28 27 27 26 25 25 24 24 23 22 22 22 20 20 20 20 21 21 21 20 19 19 18 17 16 19 25 28 26 26 26 25 25 25 25 25
Wind_Direction
196 194 191 187 179 163 149 135 116 103 90 77 65 53 46 40 39 37 37 39 33 26 21 15 14 13 8 5 360 354 348 338 335 332 319 314 308 294 285 281 276 270
165 161 155 149 142 132 125 119 112 105 97 85 72 63 57 48 44 42 40 41 36 32 30 23 18 15 13 13 9 6 5 354 347 351 345 331 319 309 296 286 281 280
145 144 141 136 130 125 120 116 111 102 90 80 72 66 60 50 43 36 31 29 30 29 29 28 24 18 14 15 15 13 12 13 15 12 3 355 336 309 290 268 256 259
137 138 134 129 125 123 119 116 109 99 90 82 78 70 62 55 41 31 26 21 19 21 24 25 24 22 18 13 12 14 16 20 27 29 22 18 21 9 341 318 283 264
129 129 124 121 121 119 118 116 107 99 95 88 81 75 68 61 50 41 37 32 27 25 23 23 21 21 20 16 10 9 13 15 18 21 19 18 24 20 7 2 349 330
120 119 116 115 115 116 116 112 103 98 95 88 82 79 74 66 60 55 50 46 42 36 30 28 25 23 20 18 14 7 3 4 5 7 7 10 15 14 8 3 360 360
114 112 111 111 111 111 110 104 100 98 93 87 83 80 74 67 62 60 56 52 47 41 37 32 27 26 23 20 17 14 9 3 359 357 357 358 1 359 356 354 355 356
107 106 104 105 107 106 102 97 94 91 88 84 82 76 71 66 61 56 53 49 43 38 35 30 26 23 19 17 14 11 10 7 3 360 356 354 350 346 343 343 344 343
99 98 97 99 99 95 92 89 85 83 81 78 73 69 63 57 52 48 43 38 34 32 29 25 22 18 13 11 7 4 1 358 359 359 356 352 348 346 343 339 336 332
89 87 87 87 86 83 80 78 75 72 69 65 61 56 51 46 40 35 31 27 21 17 16 14 12 10 7 3 360 359 356 351 350 349 347 347 345 343 341 337 333 329
78 76 74 73 73 71 69 66 63 61 56 54 51 44 39 34 30 25 17 12 8 2 360 358 356 354 352 349 348 348 347 344 342 339 338 338 337 335 333 330 328 325
64 60 57 57 58 56 54 50 47 47 44 41 39 33 26 20 15 12 5 0 357 354 351 346 344 344 340 336 333 334 334 332 329 328 328 328 327 325 323 321 319 317
43 39 37 38 38 37 36 32 30 29 26 25 23 16 12 7 2 359 356 354 350 346 343 340 338 337 334 330 327 325 324 321 319 318 319 318 317 314 313 311 309 308
22 19 18 18 19 19 17 16 16 13 11 10 7 2 358 355 353 351 349 348 344 340 337 335 334 331 327 324 321 318 317 314 311 310 310 309 307 305 304 301 300 299
7 3 2 2 3 3 2 2 0 359 0 359 355 354 352 348 346 344 342 340 337 335 332 330 328 326 324 321 318 315 313 310 307 307 306 305 302 300 296 294 295 295
356 352 350 348 348 349 350 351 350 350 351 350 348 347 343 341 339 337 335 333 330 328 327 325 323 322 321 320 318 314 308 304 302 302 302 302 300 297 294 292 292 292
348 345 343 341 342 343 345 346 346 346 345 342 342 340 337 336 334 332 330 328 327 325 323 323 322 319 319 317 317 315 306 299 295 295 296 297 296 294 294 293 292 291
340 340 340 339 339 339 340 341 341 340 339 338 337 336 335 334 331 329 327 325 326 324 322 323 322 320 320 317 319 320 307 296 293 293 294 294 292 291 291 291 291 290
334 334 334 334 335 334 335 335 335 335 336 336 336 334 333 332 330 329 326 324 325 324 322 323 322 323 323 319 323 327 303 294 294 295 297 297 294 292 291 290 290 289
327 328 328 328 329 330 331 331 332 334 334 334 333 331 330 330 328 327 325 323 323 323 322 320 320 323 322 320 328 325 295 291 295 297 298 298 296 295 295 295 295 294
320 321 322 323 323 324 326 327 328 329 329 329 328 328 327 327 326 325 323 321 319 319 319 316 316 320 319 317 328 314 291 291 296 298 298 297 294 294 295 295 295 295
315 315 315 317 317 318 320 322 323 324 324 325 325 324 324 323 322 321 319 318 317 315 315 313 312 316 316 313 316 303 292 292 294 297 298 297 295 295 294 293 292 292
310 310 311 312 313 315 317 318 320 322 322 322 321 321 320 319 318 319 317 316 315 314 313 313 311 312 312 307 302 296 295 295 294 295 296 297 299 299 297 296 295 294
306 307 308 310 311 313 315 317 319 320 321 321 320 319 319 317 316 316 314 313 313 311 311 310 309 309 308 305 299 293 296 299 297 295 296 299 301 301 300 300 300 299
304 305 306 308 310 313 316 318 320 321 321 321 320 319 318 317 316 315 313 311 310 309 308 307 306 305 304 303 299 293 295 298 296 295 299 301 301 301 301 302 302 301
302 305 307 310 313 316 320 321 322 322 321 320 319 318 318 317 316 315 314 312 310 309 308 306 305 304 302 301 299 295 292 290 290 294 300 301 300 300 301 301 301 301